ATLAS 5 CENTAUR DEB, 44666

Orbit data source: Space-Track

ATLAS 5 CENTAUR DEB, 44666 is space debris in HEO originally from a launch on Wed, 17 Oct 2018 UTC launched from the Air Force Eastern Test Range (AFETR). Debris objects in space refer to the collection of defunct objects orbiting the Earth. Examples of debris include non-operational satellites, rocket bodies, and fragments generated from explosions, collisions, or faulty payload assembly.

Loading next visibility...
ATLAS 5 CENTAUR DEB details
Identifier
44666, 2018-079AC
Orbit
HEO
Last TLE update16 hours ago
Origin
Flag of USULA (US)
ManufacturerULA Decatur
MissionSpacecraft
Bus & MotorUnknown
MassUnknown
Launch date (UTC)
2018-10-17 (6 years ago)
Launch vehicleUnknown
Launch site
Air Force Eastern Test Range (AFETR)
Object type
Payload
Rocket body
Debris
Shape & HBRUnknown
Radar Cross SectionRCS unknown

Expand to show TLE details & history

TLE from 16 hours ago
0 ATLAS 5 CENTAUR DEB
1 44666U 18079AC  25025.14645739 -.00000155  00000-0  00000-0 0  9996
2 44666  12.4772  76.5450 4469866 244.4074  63.2633  1.90676832 39339
Epoch: 2025-01-25T03:30Z
Definitive object data (Epoch: 2025-01-25T03:30:53.918Z)
Latitude0.00001°
Longitude-100.83286°
Altitude20,883.944 km
Speed3.838 km/s
True Right ascension05h 06m 21s
True Declination0° 00' 00"
Sunlit
Object was in daylight at TLE epoch
Visualization TLE readout
Latitude10.83556°
Longitude-41.22721°
Altitude33,307.175 km
Speed2.362 km/s
Apparent Right ascension09h 05m 31s
Apparent Declination4° 24' 27"
Sunlit
Object is in daylight
Visualization observer readout
Local Sidereal Time21:11:27
Azimuth2.112° NNE
Elevation-45.656°
Doppler factor1
Orbital elements
Apogee altitude33,374.651 km
Perigee altitude8,814.695 km
Semi-major axis27,472.81 km
Eccentricity0.4469866
Inclination12.4772°
RAAN76.545°
Arg. of periapsis244.4074°
True anomaly115.53407°
Mean anomaly63.2633°
Eccentric anomaly88.86875°
Mean motion0.47664 °/min
BSTARUnknown
Orbital period755.29 mins
Loading maneuver chart data...

ATLAS 5 CENTAUR DEB Visibility forecast

Observer location: undefined°, undefined

Span
Click to sort rows by Start time (UTC) header in descending order
Start Az.
Max El. time (UTC)
Max El. Az.
Max El.
End time (UTC)
End Az.
662 mins2025-01-26 03:29:26.808Z226.063° WSW2025-01-26 09:12:26.808Z205.748° SW39.032°2025-01-26 14:31:26.808Z131.452° SE
|